Content
SEND FEEDBACK

Daily
Averages
Monthly
Summary
United States of America

MERMENTAU, LOUISIANA


Home > North America > United States > Louisiana
Elevation: 23 feet     Latitude: 30 12N     Longitude: 092 40W

WEATHER
 
SELECT A DAY
Number of Records: 122,793;   Date Range: 1/3/95 - 7/29/14
 
SHARE

PRINT THIS DATA

[ ← Previous Day ]
WEATHER ALMANAC - FEBRUARY 13, 2013
[ Next Day → ]
[ °C ]   °F
Weather ElementAverageHighLow
Temperature51.7 °F59 °F (2:50 pm)44.2 °F (11:55 pm)
Dewpoint43.8 °F50.2 °F (12:55 am)38.8 °F (11:35 pm)
Humidity75.3 %87 % (6:00 am)48 % (2:50 pm)
Barometer30.03 in30.10 in (9:47 pm)29.93 in (12:55 am)
Wind Speed8 mph16.1 mph (9:50 am)
Wind Gust24.2 mph (10:50 am)
Weather ElementAverage
Visibility9.8 mi
Wind DirectionWSW (256.5 °)

Weather ElementTotal
Precipitation---
Heating Degree Days13.4 (Base 65)
Growing Degree Days1.6 (Base 50)
Averaged from 37 records on February 13, 2013
WEATHER CONDITIONS BREAKOUT
WIND DIRECTION BREAKOUT
WEATHER BY HOUR - FEBRUARY 13, 2013
[ °C ]   °F
Local TimeTemperatureDewpointHumidityBarometerVisibilityWind DirectionWind SpeedGust SpeedPrecipitationEventsConditions
12:35 AM55.0 °F50.0 °F83 %29.95 in10.0 miWNW (290°)3.5 mphClear
12:55 AM55.2 °F50.2 °F83 %29.93 in10.0 miCalmScattered Clouds
1:15 AM55.4 °F50.0 °F82 %29.98 in10.0 miWest (280°)8.1 mphScattered Clouds
1:35 AM55.0 °F49.6 °F82 %29.98 in10.0 miWNW (290°)10.4 mphScattered Clouds
1:55 AM54.9 °F48.7 °F80 %29.98 in10.0 miWNW (290°)11.5 mphClear
2:15 AM54.7 °F47.7 °F77 %29.99 in10.0 miWest (280°)11.5 mphClear
2:35 AM54.1 °F47.8 °F79 %29.98 in10.0 miWNW (300°)11.5 mphClear
2:55 AM53.8 °F46.0 °F75 %29.98 in10.0 miNW (310°)8.1 mphClear
3:15 AM53.6 °F45.7 °F75 %30.00 in10.0 miWNW (300°)11.5 mphScattered Clouds
3:35 AM53.1 °F46.0 °F77 %30.00 in10.0 miNW (310°)12.7 mphMostly Cloudy
3:55 AM52.7 °F47.1 °F81 %29.99 in10.0 miWNW (300°)11.5 mphMostly Cloudy
4:15 AM52.2 °F46.0 °F80 %30.00 in10.0 miWNW (290°)9.2 mphMostly Cloudy
4:35 AM51.8 °F45.5 °F79 %30.00 in10.0 miWNW (300°)8.1 mphOvercast
4:55 AM51.4 °F46.0 °F82 %30.00 in10.0 miWNW (300°)9.2 mphOvercast
5:15 AM50.9 °F46.4 °F85 %29.99 in10.0 miNW (320°)11.5 mphOvercast
5:35 AM50.0 °F45.5 °F85 %30.03 in10.0 miWSW (250°)5.8 mphOvercast
6:00 AM50.0 °F46.4 °F87 %30.02 in7.0 miWNW (300°)8.1 mphRainLight Rain
6:55 AM48.2 °F44.6 °F87 %30.04 in7.0 miNNW (330°)6.9 mphMostly Cloudy
7:50 AM48.2 °F44.6 °F87 %30.08 in10.0 miNNW (330°)4.6 mphMostly Cloudy
9:50 AM50.0 °F42.8 °F76 %30.05 in10.0 miNNW (330°)16.1 mph23.0 mphMostly Cloudy
10:50 AM51.8 °F42.8 °F71 %30.07 in10.0 miNNW (340°)16.1 mph24.2 mphScattered Clouds
11:50 AM53.6 °F42.8 °F67 %30.04 in10.0 miNNW (340°)16.1 mph24.2 mphScattered Clouds
12:50 PM57.2 °F41.0 °F55 %30.05 in10.0 miNW (320°)11.5 mph17.3 mphScattered Clouds
2:50 PM59.0 °F39.2 °F48 %30.02 in10.0 miNorth (350°)10.4 mph16.1 mphClear
3:55 PM59.0 °F39.2 °F48 %30.02 in10.0 miNW (320°)9.2 mphClear
4:50 PM57.2 °F39.2 °F51 %30.03 in10.0 miNNW (330°)9.2 mphClear
5:55 PM59.0 °F41.0 °F51 %30.04 in10.0 miNNW (330°)8.1 mphClear
6:51 PM51.8 °F41.0 °F67 %30.06 in10.0 miNNW (330°)5.8 mphClear
7:50 PM48.2 °F41.0 °F76 %30.07 in10.0 miNW (320°)4.6 mphClear
8:50 PM48.2 °F39.2 °F71 %30.09 in10.0 miNorth (360°)5.8 mphClear
9:47 PM46.4 °F39.2 °F76 %30.10 in10.0 miNorth (360°)4.6 mphClear
10:15 PM45.5 °F39.7 °F80 %30.10 in10.0 miCalmClear
10:35 PM45.5 °F40.1 °F81 %30.10 in10.0 miNorth (10°)3.5 mphClear
10:55 PM45.5 °F40.1 °F81 %30.10 in10.0 miNE (40°)3.5 mphClear
11:15 PM45.3 °F39.4 °F80 %30.10 in10.0 miNNE (30°)3.5 mphClear
11:35 PM44.6 °F38.8 °F80 %30.10 in10.0 miCalmClear
11:55 PM44.2 °F38.8 °F81 %30.10 in10.0 miNorth (10°)3.5 mphClear
Hourly data recorded from KCWF, located miles away from Mermentau, Louisiana







STORIES FROM OUR PARTNERS